#timestamp,LO_Frequency,Hit,StdDev 
1688727615.7,286046999.0,N
1688727635.6,286046998.2,N
1688727655.4,286046998.4,N
1688727675.2,286047000.8,N
1688727695.1,286046999.9,N
1688727696.0,286046999.9,N
1688727715.8,286047002.8,N
1688727735.7,286047004.0,N
1688727755.5,286047004.2,N
1688727775.3,286047004.2,N
1688727795.2,286047003.7,N
1688727815.0,286047002.9,N
1688727815.9,286047002.9,N
1688727835.8,286047002.9,N
1688727855.6,286047002.9,N
1688727875.4,286047005.8,N
1688727895.3,286047003.3,N
1688727915.1,286047003.0,N
1688727935.8,286047005.9,N
1688727955.7,286047003.3,N
1688727975.5,286047003.9,N
1688727995.4,286047003.4,N
1688728015.2,286047004.3,N
1688728035.0,286047003.0,N
1688728035.9,286047003.0,N
1688728055.8,286047004.0,N
1688728075.6,286047003.2,N
1688728095.5,286047001.9,N
1688728115.3,286047001.9,N
1688728135.1,286047001.5,N
1688728155.9,286047001.8,N
1688728205.7,286047001.7,E
1688728215.7,286047002.7,N
1688728235.5,286047000.0,P
1688728255.3,286047000.4,N
1688728275.2,286047000.6,N
1688728295.0,286047001.2,N
1688728295.9,286047001.2,N
1688728315.7,286046998.5,N
1688728335.6,286047000.8,N
1688728355.4,286047000.7,N
1688728375.3,286046998.5,N
1688728395.1,286046998.3,N
1688728396.0,286046998.3,N
1688728415.8,286047000.8,N
1688728435.7,286046998.5,N
1688728455.5,286046998.4,N
1688728475.4,286046999.6,N
1688728495.2,286046999.2,N
1688728515.0,286046999.4,N
1688728515.9,286046999.4,N
1688728535.8,286046997.7,N
1688728555.6,286046997.3,N
1688728575.4,286046997.0,N
1688728595.3,286046997.0,N
1688728615.1,286046997.2,N
1688728635.9,286046997.3,N
1688728655.7,286046997.7,N
1688728675.5,286046996.8,N
1688728695.4,286046997.0,N
1688728715.2,286046997.3,N
1688728735.1,286046996.5,N
1688728736.0,286046996.5,N
1688728755.8,286046997.3,N
1688728775.6,286046996.6,N
1688728795.5,286046997.2,N
1688728815.3,286046996.9,N
1688728835.1,286046997.0,N
1688728855.9,286046997.2,N
1688728875.7,286046997.2,N
1688728895.6,286046999.5,N
1688728915.4,286046999.6,N
1688728935.2,286046996.9,N
1688728955.1,286046996.9,N
1688728956.0,286046996.9,N
1688728975.8,286046996.8,Y
1688728995.7,286047001.2,P
1688729015.5,286047001.0,N
1688729035.3,286047000.8,N
1688729055.2,286047001.2,N
1688729075.0,286046998.1,N
1688729075.9,286046998.1,N
1688729095.8,286047000.8,N
1688729115.6,286047001.2,N
1688729135.4,286046998.6,N
1688729155.3,286047001.1,N
1688729175.1,286046998.2,N
1688729195.8,286047000.8,N
1688729215.7,286047000.7,N
1688729235.5,286047000.7,N
1688729255.4,286047000.8,N
1688729275.2,286047000.5,N
1688729295.0,286047001.0,N
1688729295.9,286047001.0,N
1688729315.8,286047000.8,N
1688729335.6,286046998.2,N
1688729355.5,286047000.7,N
1688729375.3,286046998.1,N
1688729395.1,286047001.2,N
1688729415.9,286047000.7,N
1688729435.7,286046998.6,N
1688729455.5,286046998.1,N
1688729475.4,286046998.2,N
1688729495.2,286046998.6,N
1688729515.1,286046998.4,N
1688729516.0,286046998.4,N
1688729535.8,286046999.0,N
1688729555.6,286047000.7,N
1688729575.5,286047001.0,N
1688729595.3,286046998.5,N
1688729615.2,286047000.8,N
1688729635.9,286046998.1,N
1688729655.7,286046998.4,N
1688729675.6,286046998.4,N
1688729695.4,286046999.4,N
1688729715.2,286046998.2,N
1688729735.1,286046998.4,N
1688729736.0,286046998.4,N
1688729755.8,286046998.4,N
1688729775.7,286046998.2,N
1688729795.5,286046999.2,N
1688729815.3,286046998.3,N
1688729835.2,286046998.3,N
1688729855.0,286046998.3,N
1688729855.9,286046998.3,N
1688729875.8,286046998.2,N
1688729895.6,286046999.0,N
1688729915.4,286046998.2,N
1688729935.3,286046999.0,N
1688729955.1,286046998.3,N
1688729975.9,286046998.2,N
1688729995.7,286046998.6,N
1688730015.5,286046999.4,N
1688730035.4,286046998.2,N
1688730055.2,286046998.6,N
1688730075.0,286047001.2,N
1688730075.9,286047001.2,N
1688730095.8,286046998.5,N
1688730115.6,286046998.3,N
1688730135.5,286046998.8,N
1688730155.3,286046998.7,N
1688730175.1,286046998.1,N
1688730195.9,286046999.0,N
1688730215.7,286046998.3,N
1688730235.6,286046998.7,N
1688730255.4,286046998.4,N
1688730275.2,286046998.3,N
1688730295.1,286046998.4,N
1688730296.0,286046998.4,N
1688730315.8,286046998.1,N
1688730335.7,286046998.4,N
1688730355.5,286046998.7,N
1688730375.3,286046998.9,N
1688730395.2,286047000.9,N
1688730415.0,286046998.9,N
1688730415.9,286046998.9,N
1688730435.7,286046998.9,N
1688730455.6,286046998.7,N
1688730475.4,286046998.8,N
1688730495.3,286046998.8,N
1688730515.1,286046999.1,N
1688730535.8,286046999.2,N
1688730555.7,286046999.1,N
1688730575.5,286046998.8,N
1688730595.4,286046999.3,N
1688730615.2,286046999.2,N
1688730635.0,286046998.4,N
1688730635.9,286046998.4,Y
1688730655.8,286046998.1,P
1688730675.6,286047000.7,N
1688730725.5,286046998.5,E
1688730735.4,286047000.3,N
1688730755.2,286046999.8,P
1688730775.1,286047000.5,N
1688730776.0,286047000.5,N
1688730795.8,286047000.5,N
1688730815.7,286047000.6,N
1688730835.5,286047001.2,Y
1688730855.3,286047000.8,P
1688730875.2,286047000.9,P
1688730895.0,286047000.5,N
1688730895.9,286047000.5,N
1688730915.8,286047000.7,Y
1688730935.6,286047000.4,P
1688730955.4,286047000.6,P
1688730975.3,286047001.0,P
1688730995.1,286047000.5,N
1688731015.9,286047000.9,Y
1688731035.7,286046998.2,P
1688731055.5,286046998.5,N
1688731075.4,286046998.8,N
1688731095.2,286047000.7,N
1688731115.0,286047000.7,N
1688731115.9,286047000.7,N
1688731135.8,286047001.1,N
1688731155.6,286046998.2,N
1688731175.5,286047001.2,N
1688731225.3,286046998.3,E
